This demonstration page uses our WeatherBlox Daily Observations layout. Learn more.

Left ArrowRight Arrow

34.16533, -84.80231

Hourly Observations for September 30, 2022

Temp ( °F °C ) Dew Point ( °F °C ) Humidity (%) Winds ( mph kmh ) Pressure ( in mb ) Visibility ( mi km ) Precip ( " mm )
12:15 am 00:15 Clear 52 11 48 9 87 87 Calm 30.10 1019 10 16 0.00 0.00
12:35 am 00:35 Clear 52 11 48 9 87 87 Calm 30.09 1019 10 16 0.00 0.00
12:55 am 00:55 Clear 52 11 48 9 87 87 Calm 30.09 1019 10 16 0.00 0.00
1:15 am 01:15 Clear 52 11 48 9 87 87 Calm 30.09 1019 10 16 0.00 0.00
1:35 am 01:35 Clear 52 11 46 8 82 82 Calm 30.09 1019 10 16 0.00 0.00
1:55 am 01:55 Clear 50 10 46 8 87 87 Calm 30.08 1019 10 16 0.00 0.00
2:15 am 02:15 Clear 50 10 46 8 87 87 Calm 30.08 1019 10 16 0.00 0.00
2:35 am 02:35 Clear 50 10 46 8 87 87 Calm 30.07 1018 10 16 0.00 0.00
2:55 am 02:55 Partly Cloudy 50 10 46 8 87 87 Calm 30.07 1018 10 16 0.00 0.00
3:15 am 03:15 Mostly Clear 48 9 46 8 93 93 Calm 30.06 1018 10 16 0.00 0.00
3:35 am 03:35 Clear 48 9 46 8 93 93 Calm 30.06 1018 10 16 0.00 0.00
3:55 am 03:55 Clear 48 9 46 8 93 93 Calm 30.05 1018 10 16 0.00 0.00
4:15 am 04:15 Clear 48 9 46 8 93 93 Calm 30.05 1018 10 16 0.00 0.00
4:35 am 04:35 Mostly Clear 50 10 46 8 87 87 Calm 30.05 1018 10 16 0.00 0.00
4:55 am 04:55 Mostly Cloudy 50 10 46 8 87 87 Calm 30.05 1018 10 16 0.00 0.00
5:15 am 05:15 Cloudy 50 10 48 9 93 93 Calm 30.05 1018 10 16 0.00 0.00
5:35 am 05:35 Cloudy 52 11 48 9 87 87 Calm 30.05 1018 10 16 0.00 0.00
5:55 am 05:55 Cloudy 54 12 48 9 82 82 Calm 30.05 1018 10 16 0.00 0.00
6:15 am 06:15 Cloudy 54 12 50 10 88 88 Calm 30.05 1018 10 16 0.00 0.00
6:35 am 06:35 Cloudy 54 12 50 10 88 88 Calm 30.05 1018 10 16 0.00 0.00
6:55 am 06:55 Cloudy 54 12 50 10 88 88 Calm 30.05 1018 10 16 0.00 0.00
7:15 am 07:15 Cloudy 54 12 50 10 88 88 Calm 30.05 1018 10 16 0.00 0.00
7:35 am 07:35 Cloudy 54 12 48 9 82 82 Calm 30.05 1018 10 16 0.00 0.00
7:55 am 07:55 Cloudy 54 12 50 10 88 88 Calm 30.05 1018 10 16 0.00 0.00
8:15 am 08:15 Cloudy 54 12 50 10 88 88 Calm 30.05 1018 10 16 0.00 0.00
8:35 am 08:35 Cloudy 54 12 50 10 88 88 Calm 30.05 1017 10 16 0.00 0.00
8:55 am 08:55 Cloudy 55 13 50 10 82 82 VRB 3 6 30.04 1017 10 16 0.00 0.00
9:15 am 09:15 Cloudy 57 14 50 10 77 77 VRB 7 11 30.04 1017 10 16 0.00 0.00
9:35 am 09:35 Partly Cloudy 59 15 50 10 72 72 N 6 9 30.03 1017 10 16 0.00 0.00
9:55 am 09:55 Sunny 61 16 50 10 68 68 VRB 5 7 30.02 1017 10 16 0.00 0.00
10:15 am 10:15 Mostly Sunny 61 16 50 10 68 68 Calm 30.02 1017 10 16 0.00 0.00
10:35 am 10:35 Partly Cloudy 63 17 50 10 63 63 NW 6 9 30.02 1017 10 16 0.00 0.00
10:55 am 10:55 Partly Cloudy 63 17 50 10 63 63 VRB 6 9 30.02 1017 10 16 0.00 0.00
11:15 am 11:15 Mostly Sunny 64 18 50 10 59 59 VRB 6 9 30.01 1016 10 16 0.00 0.00
11:35 am 11:35 Mostly Sunny 64 18 50 10 59 59 VRB 5 7 30.00 1016 10 16 0.00 0.00
11:55 am 11:55 Sunny 66 19 50 10 56 56 VRB 7 11 29.99 1016 10 16 0.00 0.00
12:15 pm 12:15 Mostly Sunny 70 21 50 10 49 49 Calm 29.98 1015 10 16 0.00 0.00
12:35 pm 12:35 Mostly Sunny 70 21 50 10 49 49 VRB 7 11 29.97 1015 10 16 0.00 0.00
12:55 pm 12:55 Sunny 72 22 50 10 46 46 N 7 11 29.96 1014 10 16 0.00 0.00
1:15 pm 13:15 Sunny 72 22 50 10 46 46 NW 8 13 29.95 1014 10 16 0.00 0.00
1:35 pm 13:35 Sunny 73 23 52 11 47 47 VRB 6 9 29.93 1014 10 16 0.00 0.00
1:55 pm 13:55 Mostly Sunny 75 24 52 11 44 44 VRB 6 9 29.92 1013 10 16 0.00 0.00
2:15 pm 14:15 Sunny 75 24 50 10 41 41 N 8 13 29.91 1013 10 16 0.00 0.00
2:35 pm 14:35 Sunny 75 24 50 10 41 41 VRB 7 11 29.89 1012 10 16 0.00 0.00
2:55 pm 14:55 Mostly Sunny 75 24 48 9 38 38 VRB 6 9 29.88 1012 10 16 0.00 0.00
3:15 pm 15:15 Partly Cloudy 77 25 50 10 39 39 W 9 15 29.87 1011 10 16 0.00 0.00
3:35 pm 15:35 Mostly Sunny 77 25 50 10 39 39 VRB 5 7 29.86 1011 10 16 0.00 0.00
3:55 pm 15:55 Partly Cloudy 77 25 50 10 39 39 N 8 13 29.86 1011 10 16 0.00 0.00
4:15 pm 16:15 Mostly Cloudy 77 25 50 10 39 39 N 8 13 29.86 1011 10 16 0.00 0.00
4:35 pm 16:35 Mostly Cloudy 77 25 50 10 39 39 WNW 8 13 29.85 1011 9 14 0.00 0.00
4:55 pm 16:55 Mostly Sunny 77 25 52 11 41 41 SW 6 9 29.85 1011 10 16 0.00 0.00
5:15 pm 17:15 Sunny 77 25 50 10 39 39 WNW 9 15 29.84 1010 10 16 0.00 0.00
5:35 pm 17:35 Sunny 75 24 50 10 41 41 VRB 6 9 29.84 1011 10 16 0.00 0.00
5:55 pm 17:55 Sunny 75 24 48 9 38 38 W 8 13 29.84 1011 10 16 0.00 0.00
6:15 pm 18:15 Sunny 75 24 48 9 38 38 VRB 5 7 29.85 1011 10 16 0.00 0.00
6:35 pm 18:35 Sunny 73 23 46 8 38 38 VRB 5 7 29.85 1011 10 16 0.00 0.00
6:55 pm 18:55 Sunny 73 23 46 8 38 38 VRB 7 11 29.84 1011 10 16 0.00 0.00
7:15 pm 19:15 Sunny 72 22 45 7 38 38 VRB 6 9 29.85 1011 10 16 0.00 0.00
7:35 pm 19:35 Clear 70 21 45 7 40 40 NW 7 11 29.85 1011 10 16 0.00 0.00
7:55 pm 19:55 Clear 70 21 43 6 38 38 VRB 6 9 29.85 1011 10 16 0.00 0.00
8:15 pm 20:15 Clear 68 20 43 6 40 40 WNW 6 9 29.85 1011 10 16 0.00 0.00
8:35 pm 20:35 Clear 68 20 43 6 40 40 VRB 5 7 29.85 1011 10 16 0.00 0.00
8:55 pm 20:55 Clear 66 19 43 6 43 43 VRB 3 6 29.86 1011 10 16 0.00 0.00
9:15 pm 21:15 Clear 66 19 43 6 43 43 Calm 29.86 1011 10 16 0.00 0.00
9:35 pm 21:35 Clear 64 18 43 6 45 45 W 5 7 29.87 1011 10 16 0.00 0.00
9:55 pm 21:55 Clear 64 18 45 7 49 49 VRB 6 9 29.87 1011 10 16 0.00 0.00
10:15 pm 22:15 Clear 64 18 43 6 45 45 VRB 3 6 29.86 1011 10 16 0.00 0.00
10:35 pm 22:35 Clear 64 18 43 6 45 45 VRB 3 6 29.87 1011 10 16 0.00 0.00
10:55 pm 22:55 Clear 63 17 43 6 48 48 W 5 7 29.87 1011 10 16 0.00 0.00
11:15 pm 23:15 Clear 63 17 41 5 45 45 Calm 29.87 1011 10 16 0.00 0.00
11:35 pm 23:35 Clear 63 17 41 5 45 45 W 6 9 29.87 1011 10 16 0.00 0.00
11:55 pm 23:55 Clear 61 16 41 5 48 48 Calm 29.87 1012 10 16 0.00 0.00

Powered by AerisWeather